Temperature
21 18 18 19 19 20 20 20 19 18 16 14 13 13 13 13 13 13 12 12 12 12 14 14 15 15 16 16 16 17 17 17 18 18 18 18 18 18 18 18 18 18 18 18
18 18 19 19 19 19 19 19 18 17 16 14 13 13 13 13 13 13 12 12 12 12 13 14 14 15 15 15 15 16 16 16 17 17 17 18 18 18 18 18 18 18 18 18
18 18 19 18 17 18 18 18 18 17 15 14 13 13 12 12 13 13 12 12 12 12 12 12 13 13 14 14 14 15 15 15 16 16 17 17 17 18 18 18 18 18 18 18
18 18 18 17 17 17 17 18 17 17 15 13 14 13 11 11 11 12 12 12 11 12 12 12 12 13 13 13 14 14 14 15 15 15 16 16 17 17 17 18 18 18 18 18
18 18 17 17 17 17 17 16 16 16 14 12 11 12 11 10 11 11 12 12 11 11 11 11 12 12 12 13 13 13 14 14 15 15 15 16 16 16 17 17 17 17 17 17
17 17 17 16 17 16 15 15 14 12 12 11 11 11 11 10 11 11 11 11 11 11 11 11 12 12 12 12 13 13 13 14 14 14 15 15 15 16 16 16 16 16 16 17
16 16 16 16 15 15 13 13 13 13 11 12 12 11 11 11 11 11 11 11 11 11 11 11 11 12 12 12 12 13 13 13 13 14 14 14 15 15 15 15 16 16 16 16
16 14 15 15 15 14 13 12 13 14 12 11 11 11 11 12 12 12 12 12 11 11 11 11 11 11 12 12 12 12 13 13 13 13 13 14 14 14 15 15 15 15 15 15
14 15 16 16 15 14 14 11 12 11 11 11 11 12 12 12 11 12 12 12 11 11 11 11 11 11 11 12 12 12 12 12 13 13 13 13 14 14 14 14 14 15 15 15
14 15 15 15 15 13 12 11 10 11 11 11 11 11 10 10 11 11 11 11 11 11 11 11 11 11 11 11 12 12 12 12 12 13 13 13 13 13 14 14 14 14 14 14
14 14 14 14 13 13 12 12 9 9 10 10 11 10 11 11 10 10 11 11 12 12 11 11 11 11 11 11 12 12 12 12 12 12 13 13 13 13 13 14 14 14 14 14
12 11 12 14 14 14 13 12 10 10 9 9 9 10 12 11 11 11 11 12 12 12 12 12 11 11 11 11 11 11 12 12 12 12 12 13 13 13 13 13 14 14 14 14
13 12 12 14 13 13 13 12 10 9 8 9 10 11 12 12 12 12 12 12 13 12 12 12 12 11 11 11 11 11 11 11 11 12 12 12 13 13 13 13 13 13 13 14
13 11 13 14 14 13 13 13 11 10 9 10 10 11 11 11 11 12 13 13 13 13 13 12 12 12 11 11 11 11 11 11 12 12 12 12 12 12 13 13 13 13 13 13
12 12 13 14 14 14 14 13 12 12 10 10 11 11 11 11 12 12 13 13 13 13 13 12 12 12 12 11 11 11 11 11 11 12 12 12 12 12 12 12 13 13 13 13
12 13 14 14 14 14 14 13 13 12 11 11 12 11 12 13 13 13 13 13 13 13 13 13 12 12 12 11 11 11 11 11 11 11 11 11 11 12 12 12 12 12 12 13
11 12 12 12 14 14 13 13 13 13 12 12 11 12 12 13 13 13 13 13 13 13 13 13 13 12 12 12 11 11 11 11 11 11 11 11 11 11 11 11 12 12 12 12
12 11 10 11 13 14 14 14 13 13 13 12 12 12 13 13 14 14 14 14 14 14 13 13 13 13 12 12 12 11 11 11 11 11 11 11 11 11 11 11 11 11 11 11
11 11 10 10 12 13 14 14 13 13 13 13 12 13 14 14 13 14 14 14 14 14 14 13 13 13 13 12 12 12 12 11 11 11 11 11 10 11 11 11 11 11 11 11
11 10 10 11 14 14 15 14 15 14 13 14 14 14 14 13 11 12 14 14 14 14 14 14 14 13 13 13 12 12 12 12 11 11 11 11 10 10 11 10 10 10 11 11
13 11 11 11 13 12 13 14 15 13 13 15 15 15 14 13 13 15 15 14 14 14 14 14 14 14 13 13 13 12 12 12 11 11 11 11 11 10 10 10 10 10 10 10
12 11 11 10 12 13 14 13 13 13 16 16 16 16 15 15 15 15 15 14 14 14 14 14 14 14 14 13 13 13 12 12 12 11 11 11 11 11 10 10 10 10 10 10
11 11 10 11 13 14 15 16 17 17 17 17 16 16 16 15 15 15 15 15 15 15 15 14 14 14 14 14 13 13 13 12 12 11 11 11 11 11 10 10 10 10 10 10
11 11 10 10 11 14 16 16 17 17 17 17 17 16 16 16 15 15 15 15 15 15 15 15 15 14 14 14 13 13 13 12 12 11 11 11 11 10 10 10 10 10 10 10
12 10 11 12 12 14 16 17 17 17 17 17 16 16 16 16 16 15 15 15 15 15 15 15 15 15 14 14 14 13 13 12 12 12 11 11 11 10 10 10 10 10 10 9
12 11 12 13 16 15 18 18 17 17 17 17 16 16 16 16 16 16 15 15 15 15 15 15 15 15 14 14 14 13 13 13 12 12 11 11 11 10 10 10 10 10 10 9
Wind_Speed
7 8 6 6 5 3 4 4 4 4 5 8 11 10 8 10 15 16 15 14 15 14 12 12 12 12 11 11 11 10 10 9 7 4 3 3 4 5 5 6 8 9 10 10
8 7 5 5 6 7 5 5 3 4 6 6 7 8 6 9 11 11 12 13 13 16 16 16 15 13 12 11 11 10 10 9 7 5 4 3 3 4 5 5 6 8 9 9
9 3 5 5 8 7 4 4 1 2 4 5 4 4 7 6 7 11 12 11 13 15 17 17 16 14 12 11 11 11 10 10 8 7 5 4 2 2 3 5 6 6 7 8
7 5 5 7 7 6 2 2 1 2 4 2 2 0 6 8 9 14 15 15 15 16 16 15 15 15 13 12 11 10 10 9 8 7 5 4 3 4 4 4 4 4 6 7
5 4 7 7 5 5 3 4 1 2 5 4 7 4 5 7 10 15 15 15 15 15 15 15 14 13 13 12 11 9 10 9 8 7 5 4 4 4 3 2 3 4 5 5
5 4 4 3 3 3 3 4 6 6 5 5 5 3 5 6 10 14 14 15 15 15 15 14 13 12 11 11 10 9 9 9 8 7 6 4 4 3 2 1 2 3 3 3
7 7 7 5 7 7 9 6 4 5 5 2 2 4 2 6 8 10 13 15 15 14 14 14 15 14 14 13 12 10 9 8 9 8 7 5 4 3 2 0 1 2 2 2
4 5 7 7 4 3 4 5 5 3 2 1 3 2 4 5 8 9 9 11 13 14 14 14 15 14 13 12 12 11 10 9 9 8 7 6 5 3 3 3 2 2 2 2
5 1 3 5 5 3 4 4 3 6 3 3 3 3 5 5 10 10 12 13 14 15 15 15 15 14 13 12 12 11 11 10 9 8 8 7 7 6 5 4 4 3 3 3
6 4 4 5 6 7 5 4 5 5 3 1 3 3 5 10 13 13 14 13 13 14 14 15 14 14 13 12 12 11 11 10 9 9 8 7 7 6 6 5 5 4 3 3
4 5 4 5 6 6 6 5 6 5 4 4 1 4 4 6 8 10 11 12 11 12 12 12 12 13 13 12 12 12 12 11 11 10 9 9 8 8 7 7 6 5 4 4
4 5 3 2 2 1 4 3 3 4 2 3 3 4 5 5 7 7 9 10 10 10 10 10 11 12 12 12 12 12 11 11 11 10 10 10 9 9 9 9 8 7 6 5
5 6 3 4 5 5 5 4 4 6 5 3 2 4 4 5 7 7 8 9 9 9 9 9 10 10 11 11 11 11 11 11 10 10 10 11 10 10 10 9 9 9 8 7
5 5 4 4 3 1 2 2 3 4 4 3 3 4 6 7 7 8 9 9 9 9 8 8 8 9 9 9 10 10 10 10 10 10 10 10 10 9 9 9 9 9 8 8
5 5 4 3 3 3 2 2 3 3 5 5 4 4 6 6 6 7 7 8 8 9 9 8 8 8 8 9 9 9 9 10 9 9 10 9 9 8 8 9 9 9 9 9
4 5 3 3 2 2 1 1 2 3 4 3 2 4 6 4 4 5 6 7 7 8 8 8 8 8 8 8 8 8 9 9 8 9 9 9 9 9 9 8 8 9 9 8
3 5 4 0 1 4 4 6 6 4 4 6 6 6 3 2 4 5 6 6 7 8 7 7 7 6 6 6 5 6 7 7 8 8 8 9 9 9 9 9 9 9 9 8
6 5 4 3 2 4 6 3 7 5 5 7 6 5 5 6 4 5 5 5 7 7 7 7 6 6 5 4 5 5 6 6 7 8 8 8 8 8 8 9 9 8 7 7
4 7 5 4 2 6 5 4 7 6 5 7 8 6 5 2 2 5 4 3 4 5 5 4 4 4 4 4 4 4 6 6 7 7 7 7 7 7 8 8 8 7 7 7
6 6 6 4 2 5 6 4 6 5 4 7 9 8 6 6 1 4 5 4 5 5 4 4 4 3 3 3 3 4 5 5 6 5 5 6 6 7 7 7 7 6 6 6
2 4 4 4 5 8 6 6 8 5 7 6 10 9 9 8 7 5 4 4 4 4 4 4 3 3 4 3 2 3 4 4 4 4 5 6 6 6 6 6 6 6 6 7
7 6 5 5 4 8 6 10 9 10 3 7 9 9 9 8 5 4 3 3 4 5 5 4 4 4 4 3 2 2 3 2 2 4 6 6 7 6 6 7 7 7 7 8
8 9 7 9 8 5 9 9 7 7 7 8 9 8 9 7 5 4 2 2 3 4 4 3 3 4 4 3 1 1 2 1 3 4 5 5 6 6 6 7 7 6 7 6
5 4 5 5 8 7 9 6 5 8 8 8 9 9 9 8 6 5 2 1 2 3 3 4 4 4 5 4 2 1 0 2 4 4 4 4 5 5 6 6 5 5 6 6
7 8 5 6 7 4 7 10 9 8 7 8 7 8 9 9 7 6 4 3 2 2 3 3 3 3 4 4 2 1 2 4 4 3 3 3 3 3 4 4 4 4 3 3
7 9 9 8 8 8 8 10 11 10 9 10 10 8 7 8 8 6 4 3 2 2 2 3 3 3 3 3 2 1 1 3 4 3 2 2 2 2 2 2 3 5 4 7
Wind_Direction
28 55 40 9 23 86 101 105 94 79 97 78 85 77 39 24 27 22 14 7 3 355 346 345 345 345 345 343 341 337 335 333 333 329 302 263 239 230 224 221 216 209 209 207
49 39 357 17 33 58 76 94 78 77 97 100 104 78 38 32 26 16 7 358 352 348 348 347 345 344 344 338 334 333 331 327 327 319 292 266 253 242 229 224 213 206 207 205
94 7 5 60 45 46 52 103 116 138 82 89 118 55 14 360 8 10 8 358 351 350 343 340 340 338 338 337 334 332 326 323 322 321 306 293 274 253 224 221 214 204 200 199
75 19 40 58 43 35 343 345 289 187 126 68 1 316 1 336 347 2 359 355 350 345 341 338 337 335 334 331 328 326 325 325 323 322 315 294 272 259 246 233 214 199 189 183
71 28 43 41 5 4 305 342 28 125 126 78 27 70 334 338 353 349 345 345 342 341 339 337 335 330 328 329 327 329 329 331 331 328 316 300 286 274 273 237 196 189 185 183
53 27 47 358 350 20 350 62 61 55 74 58 348 53 354 347 333 331 334 337 338 338 338 337 337 335 332 331 331 335 336 336 338 338 335 323 305 295 289 230 186 180 174 170
28 12 2 14 12 11 36 67 44 24 34 27 349 75 328 303 319 322 325 332 337 340 341 342 343 342 340 340 341 341 341 344 347 348 353 353 341 332 344 346 161 149 154 153
85 7 357 14 29 341 34 85 122 152 165 307 14 34 275 289 313 318 325 333 341 345 347 348 346 343 343 346 350 351 352 354 355 356 0 4 7 9 15 30 64 88 105 122
127 135 336 26 28 57 60 61 121 120 110 71 1 339 316 326 339 341 343 346 347 347 349 350 350 351 351 353 357 358 1 4 4 5 8 13 17 26 30 36 53 68 74 98
124 117 347 336 32 36 87 108 77 83 107 62 353 346 316 324 333 337 340 341 341 345 348 351 353 354 355 358 3 7 7 9 9 14 16 20 17 23 31 41 46 53 68 80
99 110 4 30 35 353 23 52 79 84 100 126 27 302 265 292 310 322 327 331 336 341 344 347 351 356 360 5 11 12 10 14 16 17 19 22 22 25 32 39 40 46 54 62
104 107 72 345 311 80 94 81 117 117 94 112 137 272 283 296 306 316 322 329 334 337 341 346 352 357 3 6 9 10 11 14 14 15 22 24 25 31 35 36 34 40 47 48
123 103 80 359 350 13 55 59 89 106 107 112 130 278 307 334 330 330 331 333 335 337 341 346 352 357 0 3 5 8 11 12 14 19 25 27 29 31 32 32 32 36 42 43
106 84 127 152 213 199 60 65 113 107 117 148 209 262 310 324 325 328 332 332 333 339 344 350 351 353 356 359 3 6 8 10 15 22 27 28 25 26 27 30 33 34 39 43
91 90 87 88 100 110 100 102 125 124 159 165 216 240 270 283 295 307 318 330 341 345 347 351 351 351 356 359 359 2 6 9 13 21 26 22 18 21 28 31 31 35 37 39
71 107 90 52 54 73 52 185 146 141 163 184 213 258 254 266 292 310 325 335 338 337 338 343 347 350 352 354 354 359 3 4 12 22 21 17 19 24 27 28 29 33 33 31
83 114 107 185 353 17 291 222 189 193 192 176 202 233 232 254 285 298 309 320 322 324 329 337 337 333 335 343 351 355 352 0 17 21 19 17 20 25 24 28 32 30 28 31
119 101 109 115 84 271 251 219 175 181 213 200 210 223 210 222 257 282 277 288 306 319 328 329 329 330 331 342 353 354 1 10 18 19 18 16 20 24 24 30 30 24 25 29
118 126 114 120 196 282 282 191 168 173 239 206 199 214 209 189 5 316 281 275 279 297 307 303 305 307 322 338 348 4 7 10 18 16 14 13 19 25 27 28 23 20 28 32
68 90 110 127 183 251 252 193 154 115 267 214 183 191 176 132 113 271 281 299 304 317 318 318 321 327 332 332 356 17 8 11 11 6 10 17 26 34 32 28 24 21 29 30
98 71 121 160 227 262 241 150 124 149 243 197 176 179 170 181 206 237 291 304 319 325 325 332 340 336 322 325 10 20 10 3 353 16 32 31 30 40 37 34 29 27 30 32
173 163 181 159 205 259 188 147 178 210 197 164 171 175 180 203 226 244 269 303 337 341 337 339 339 332 331 348 21 8 350 342 34 53 50 41 35 39 40 41 35 29 30 34
193 188 184 189 212 235 187 194 201 169 167 175 173 180 178 188 207 210 227 295 324 335 339 339 335 333 342 355 20 350 315 74 84 73 62 53 49 45 42 46 40 32 30 34
240 169 168 239 257 236 219 229 198 182 180 176 172 169 170 179 191 194 205 263 309 324 332 340 350 352 344 343 354 302 276 130 108 92 75 64 63 53 45 46 43 41 32 30
216 169 191 247 266 258 229 209 196 185 169 157 161 171 176 176 185 189 201 234 268 301 318 334 341 332 328 336 357 19 108 127 117 108 97 82 74 69 53 48 40 38 30 30
191 176 178 218 215 192 222 201 178 168 174 172 167 172 179 180 185 184 198 219 238 282 314 336 342 338 335 343 355 18 120 136 138 135 136 125 114 98 74 51 29 27 37 40
Height
1530 1538 1547 1545 1542 1542 1544 1549 1553 1555 1557 1562 1568 1571 1571 1568 1564 1561 1559 1556 1553 1549 1546 1542 1538 1534 1531 1528 1525 1522 1520 1518 1516 1515 1515 1515 1516 1517 1518 1520 1522 1525 1527 1529
1541 1549 1547 1544 1544 1544 1547 1552 1556 1558 1559 1565 1571 1573 1572 1569 1568 1566 1563 1558 1554 1549 1544 1539 1536 1532 1529 1526 1523 1520 1517 1514 1512 1511 1510 1510 1511 1511 1512 1515 1516 1519 1521 1524
1549 1552 1547 1548 1550 1551 1552 1555 1556 1559 1563 1566 1570 1575 1575 1571 1569 1567 1563 1560 1555 1550 1545 1539 1534 1531 1527 1523 1520 1517 1514 1511 1509 1507 1506 1505 1506 1506 1508 1509 1511 1513 1516 1519
1551 1551 1551 1552 1554 1554 1558 1553 1554 1556 1565 1575 1573 1582 1580 1574 1570 1566 1563 1559 1555 1550 1545 1539 1534 1529 1525 1522 1518 1515 1512 1509 1506 1504 1502 1502 1501 1501 1502 1504 1506 1508 1511 1513
1555 1554 1555 1556 1556 1555 1555 1553 1555 1557 1566 1578 1580 1584 1586 1577 1573 1568 1564 1560 1555 1550 1545 1539 1534 1529 1525 1520 1516 1513 1510 1507 1504 1501 1500 1498 1498 1498 1498 1499 1501 1503 1505 1508
1555 1555 1556 1557 1555 1555 1555 1556 1559 1566 1573 1587 1587 1588 1589 1583 1579 1572 1566 1561 1556 1550 1545 1539 1533 1528 1523 1519 1515 1511 1508 1505 1502 1499 1497 1496 1495 1495 1495 1496 1497 1499 1501 1504
1562 1561 1559 1557 1558 1557 1560 1567 1577 1579 1589 1591 1585 1588 1590 1581 1577 1573 1568 1562 1556 1551 1544 1538 1532 1527 1522 1517 1514 1510 1507 1503 1501 1498 1496 1494 1493 1493 1493 1494 1495 1497 1498 1500
1569 1574 1565 1562 1564 1565 1566 1571 1582 1586 1591 1593 1588 1589 1587 1579 1576 1572 1568 1563 1557 1551 1545 1539 1534 1528 1523 1518 1514 1510 1507 1503 1501 1498 1496 1494 1493 1493 1493 1493 1494 1496 1497 1499
1571 1574 1565 1564 1564 1564 1568 1575 1575 1586 1589 1595 1593 1588 1583 1578 1575 1571 1567 1562 1557 1552 1547 1541 1535 1529 1524 1520 1515 1512 1508 1505 1502 1499 1497 1495 1494 1494 1494 1494 1495 1495 1496 1498
1564 1573 1569 1566 1565 1567 1570 1574 1580 1586 1592 1596 1594 1593 1593 1582 1577 1572 1568 1563 1559 1554 1548 1543 1537 1531 1526 1522 1518 1514 1510 1507 1505 1502 1500 1498 1497 1496 1496 1496 1496 1496 1497 1498
1562 1573 1575 1571 1574 1576 1574 1577 1584 1592 1593 1598 1600 1599 1585 1582 1578 1574 1569 1565 1561 1556 1551 1546 1541 1535 1530 1525 1521 1518 1514 1511 1508 1506 1504 1502 1500 1499 1499 1498 1498 1498 1499 1499
1564 1575 1581 1576 1572 1571 1574 1578 1583 1590 1597 1599 1601 1600 1580 1579 1577 1574 1570 1566 1562 1558 1554 1550 1545 1539 1534 1530 1526 1521 1518 1515 1512 1509 1507 1506 1504 1503 1502 1501 1501 1501 1501 1501
1563 1574 1585 1583 1582 1576 1576 1579 1582 1588 1595 1599 1600 1596 1579 1578 1576 1573 1571 1567 1564 1560 1556 1552 1548 1543 1539 1534 1530 1526 1523 1520 1517 1514 1511 1509 1508 1506 1505 1504 1504 1503 1503 1503
1561 1574 1581 1584 1583 1578 1578 1579 1581 1586 1594 1596 1594 1590 1582 1578 1576 1573 1571 1568 1565 1562 1559 1555 1551 1547 1543 1539 1535 1531 1527 1524 1521 1518 1515 1513 1511 1510 1509 1508 1507 1506 1506 1505
1562 1575 1575 1576 1574 1575 1577 1578 1580 1582 1587 1591 1587 1586 1582 1578 1576 1574 1572 1569 1567 1564 1561 1557 1554 1551 1547 1543 1539 1536 1532 1529 1526 1523 1520 1517 1515 1514 1512 1511 1510 1509 1509 1508
1564 1573 1575 1577 1575 1575 1577 1577 1578 1580 1582 1583 1583 1583 1577 1576 1575 1574 1572 1570 1568 1565 1562 1559 1556 1553 1550 1547 1543 1540 1536 1533 1530 1527 1524 1522 1520 1518 1516 1514 1513 1512 1511 1510
1568 1573 1581 1585 1578 1579 1581 1575 1576 1577 1577 1579 1582 1579 1575 1575 1575 1574 1572 1571 1569 1566 1564 1561 1558 1556 1553 1550 1547 1543 1540 1537 1534 1531 1528 1526 1523 1521 1519 1518 1516 1515 1514 1513
1568 1576 1584 1586 1584 1586 1576 1567 1569 1572 1572 1573 1573 1573 1573 1574 1574 1573 1572 1571 1569 1567 1565 1563 1560 1557 1555 1552 1550 1547 1544 1541 1538 1535 1532 1530 1527 1525 1523 1521 1519 1518 1517 1515
1564 1573 1584 1589 1587 1582 1570 1566 1567 1571 1571 1568 1570 1570 1572 1573 1573 1573 1572 1571 1569 1568 1566 1564 1561 1559 1557 1554 1552 1549 1547 1544 1541 1538 1535 1533 1531 1529 1527 1525 1523 1521 1520 1518
1567 1570 1581 1587 1582 1580 1567 1560 1562 1568 1571 1563 1565 1567 1570 1572 1576 1573 1571 1570 1569 1568 1566 1564 1562 1560 1558 1556 1554 1551 1549 1546 1543 1541 1539 1537 1535 1533 1530 1528 1526 1525 1523 1521
1571 1576 1580 1584 1582 1573 1559 1558 1563 1576 1569 1558 1561 1564 1567 1569 1571 1571 1570 1570 1569 1568 1566 1565 1563 1561 1559 1557 1555 1553 1551 1549 1546 1544 1542 1540 1538 1536 1534 1532 1530 1528 1526 1524
1569 1575 1579 1583 1581 1574 1554 1557 1561 1559 1554 1556 1559 1562 1565 1567 1568 1569 1569 1569 1568 1567 1566 1564 1563 1561 1559 1558 1556 1554 1552 1551 1549 1547 1544 1542 1540 1538 1537 1535 1533 1531 1529 1528
1561 1560 1563 1565 1561 1549 1548 1548 1549 1551 1552 1554 1557 1561 1563 1565 1567 1568 1568 1568 1568 1567 1566 1564 1563 1561 1560 1558 1557 1555 1554 1552 1550 1548 1546 1545 1543 1541 1540 1538 1536 1534 1532 1531
1553 1551 1554 1554 1547 1543 1544 1545 1547 1549 1551 1553 1557 1560 1562 1564 1566 1567 1567 1568 1567 1566 1566 1564 1563 1562 1560 1559 1557 1556 1555 1553 1552 1550 1549 1547 1546 1544 1543 1541 1539 1537 1535 1534
1543 1547 1549 1548 1541 1540 1539 1541 1544 1547 1550 1553 1556 1558 1561 1563 1564 1566 1566 1567 1566 1566 1565 1564 1563 1562 1561 1559 1558 1557 1555 1554 1553 1552 1550 1549 1548 1547 1546 1544 1542 1541 1539 1537
1535 1537 1541 1540 1532 1533 1533 1535 1540 1544 1547 1550 1554 1556 1559 1561 1563 1564 1565 1566 1566 1565 1565 1564 1563 1562 1561 1559 1558 1557 1556 1555 1554 1553 1552 1551 1550 1549 1548 1547 1545 1544 1542 1540